BTK6565 WARA-WIII

Flight info

Callsign BTK6565
Flight time 1h 4m
Altitude 34000
Route SBR T2 KALUT T6 KURUS
Aircraft A320/M-SDE3FGHIRWY/LB1

Departure

Time 2026-05-04 09:57
Airport Abdul Rachman Saleh Airport (WARA)

Arrival

Time 2026-05-04 11:01
Airport Soekarno-Hatta International Airport (WIII)
Time Latitude Longitude Altitude Speed Heading
2026-05-04 09:34 -7.93704 112.71216 1733 ft 0 kts 256°
2026-05-04 09:51 -7.93663 112.71273 1730 ft 0 kts 166°
2026-05-04 09:52 -7.93679 112.71277 1735 ft 6 kts 166°
2026-05-04 09:52 -7.93716 112.71286 1733 ft 7 kts 166°
2026-05-04 09:53 -7.93770 112.71299 1735 ft 8 kts 166°
2026-05-04 09:53 -7.93821 112.71312 1730 ft 9 kts 161°
2026-05-04 09:53 -7.93827 112.71375 1730 ft 11 kts 76°
2026-05-04 09:53 -7.93805 112.71463 1731 ft 15 kts 76°
2026-05-04 09:54 -7.93781 112.71568 1737 ft 15 kts 77°
2026-05-04 09:54 -7.93778 112.71633 1737 ft 10 kts 118°
2026-05-04 09:54 -7.93853 112.71662 1731 ft 12 kts 166°
2026-05-04 09:54 -7.93919 112.71693 1735 ft 9 kts 142°
2026-05-04 09:55 -7.93965 112.71707 1733 ft 7 kts 224°
2026-05-04 09:55 -7.93939 112.71683 1732 ft 5 kts 345°
2026-05-04 09:55 -7.93935 112.71682 1732 ft 0 kts 346°
2026-05-04 09:56 -7.93870 112.71665 1731 ft 36 kts 346°
2026-05-04 09:56 -7.93371 112.71545 1736 ft 107 kts 346°
2026-05-04 09:56 -7.92456 112.71325 1741 ft 161 kts 348°
2026-05-04 09:57 -7.91341 112.71056 2361 ft 163 kts 347°
2026-05-04 09:57 -7.90248 112.70772 3133 ft 161 kts 346°
2026-05-04 09:57 -7.89174 112.70485 3726 ft 166 kts 346°
2026-05-04 09:57 -7.87970 112.70177 3965 ft 188 kts 351°
2026-05-04 09:58 -7.86600 112.70138 4152 ft 212 kts
2026-05-04 09:58 -7.85089 112.70499 4339 ft 236 kts 15°
2026-05-04 09:58 -7.83422 112.70942 4663 ft 260 kts 15°
2026-05-04 10:00 -7.70473 112.70934 9912 ft 299 kts 313°
2026-05-04 10:00 -7.69040 112.69399 10569 ft 307 kts 313°
2026-05-04 10:02 -7.57233 112.56753 13904 ft 374 kts 313°
2026-05-04 10:04 -7.43888 112.43418 17682 ft 397 kts 315°
2026-05-04 10:04 -7.41921 112.41449 18171 ft 400 kts 315°
2026-05-04 10:04 -7.39941 112.39464 18651 ft 403 kts 315°
2026-05-04 10:04 -7.37947 112.37464 19119 ft 406 kts 315°
2026-05-04 10:05 -7.35936 112.35453 19565 ft 409 kts 315°
2026-05-04 10:05 -7.33912 112.33427 19992 ft 412 kts 315°
2026-05-04 10:05 -7.31874 112.31385 20419 ft 415 kts 315°
2026-05-04 10:05 -7.29822 112.29329 20843 ft 417 kts 315°
2026-05-04 10:06 -7.27756 112.27261 21245 ft 420 kts 315°
2026-05-04 10:06 -7.25677 112.25182 21641 ft 423 kts 315°
2026-05-04 10:06 -7.23584 112.23091 22018 ft 425 kts 315°
2026-05-04 10:08 -7.10775 112.10295 24089 ft 440 kts 316°
2026-05-04 10:08 -7.08591 112.08119 24405 ft 442 kts 316°
2026-05-04 10:08 -7.06401 112.05936 24723 ft 444 kts 316°
2026-05-04 10:08 -7.04204 112.03741 25034 ft 446 kts 315°
2026-05-04 10:09 -7.01997 112.01535 25342 ft 448 kts 316°
2026-05-04 10:09 -6.99779 111.99321 25654 ft 450 kts 316°
2026-05-04 10:09 -6.97551 111.97099 25935 ft 452 kts 316°
2026-05-04 10:09 -6.95316 111.94871 26211 ft 454 kts 316°
2026-05-04 10:10 -6.93064 111.92623 26493 ft 456 kts 316°
2026-05-04 10:10 -6.90810 111.90377 26769 ft 458 kts 316°
2026-05-04 10:10 -6.88542 111.88117 27037 ft 460 kts 316°
2026-05-04 10:10 -6.86291 111.85873 27308 ft 462 kts 316°
2026-05-04 10:11 -6.84006 111.83591 27568 ft 464 kts 316°
2026-05-04 10:11 -6.81714 111.81303 27825 ft 466 kts 316°
2026-05-04 10:11 -6.79375 111.78973 28084 ft 467 kts 316°
2026-05-04 10:11 -6.77092 111.76700 28328 ft 469 kts 316°
2026-05-04 10:12 -6.74767 111.74387 28570 ft 471 kts 316°
2026-05-04 10:12 -6.72432 111.72068 28805 ft 472 kts 316°
2026-05-04 10:12 -6.70093 111.69740 29033 ft 474 kts 316°
2026-05-04 10:12 -6.67747 111.67402 29263 ft 476 kts 316°
2026-05-04 10:13 -6.65392 111.65055 29485 ft 477 kts 316°
2026-05-04 10:13 -6.63071 111.62660 29693 ft 479 kts 311°
2026-05-04 10:13 -6.61090 111.59955 29902 ft 482 kts 302°
2026-05-04 10:13 -6.59488 111.56988 30128 ft 483 kts 298°
2026-05-04 10:14 -6.57940 111.53989 30438 ft 483 kts 298°
2026-05-04 10:14 -6.56392 111.50999 30764 ft 481 kts 298°
2026-05-04 10:16 -6.45645 111.30338 33079 ft 472 kts 298°
2026-05-04 10:16 -6.44130 111.27419 33406 ft 470 kts 298°
2026-05-04 10:16 -6.42618 111.24511 33726 ft 469 kts 298°
2026-05-04 10:16 -6.41108 111.21608 33865 ft 468 kts 298°
2026-05-04 10:17 -6.38103 111.15838 33887 ft 466 kts 298°
2026-05-04 10:19 -6.25852 110.92905 33886 ft 466 kts 299°
2026-05-04 10:19 -6.22777 110.87179 33885 ft 465 kts 299°
2026-05-04 10:20 -6.19701 110.81456 33880 ft 465 kts 299°
2026-05-04 10:20 -6.16620 110.75735 33885 ft 466 kts 299°
2026-05-04 10:21 -6.13543 110.70000 33884 ft 467 kts 299°
2026-05-04 10:21 -6.10459 110.64259 33888 ft 467 kts 299°
2026-05-04 10:22 -6.05824 110.55649 33882 ft 467 kts 299°
2026-05-04 10:23 -6.02729 110.49916 33880 ft 467 kts 299°
2026-05-04 10:25 -5.96507 110.25203 33869 ft 469 kts 270°
2026-05-04 10:25 -5.96503 110.18646 33873 ft 470 kts 270°
2026-05-04 10:26 -5.96498 110.12078 33879 ft 470 kts 270°
2026-05-04 10:26 -5.96496 110.06571 33883 ft 470 kts 270°
2026-05-04 10:27 -5.96499 110.00004 33887 ft 470 kts 270°
2026-05-04 10:27 -5.96497 109.93480 33898 ft 470 kts 270°
2026-05-04 10:28 -5.96488 109.86914 33899 ft 470 kts 270°
2026-05-04 10:28 -5.96483 109.80350 33895 ft 470 kts 270°
2026-05-04 10:29 -5.96486 109.73778 33898 ft 470 kts 270°
2026-05-04 10:29 -5.96479 109.67209 33904 ft 470 kts 270°
2026-05-04 10:30 -5.96461 109.60648 33895 ft 470 kts 270°
2026-05-04 10:30 -5.96448 109.54087 33887 ft 470 kts 270°
2026-05-04 10:31 -5.96445 109.47528 33884 ft 470 kts 270°
2026-05-04 10:32 -5.96416 109.24549 33881 ft 470 kts 270°
2026-05-04 10:33 -5.96402 109.17986 33883 ft 470 kts 270°
2026-05-04 10:33 -5.96387 109.11405 33882 ft 471 kts 271°
2026-05-04 10:34 -5.96371 109.04826 33885 ft 471 kts 271°
2026-05-04 10:34 -5.96358 108.98249 33891 ft 471 kts 271°
2026-05-04 10:35 -5.96346 108.91665 33889 ft 471 kts 271°
2026-05-04 10:35 -5.96331 108.85082 33887 ft 471 kts 271°
2026-05-04 10:36 -5.96312 108.78501 33887 ft 471 kts 271°
2026-05-04 10:36 -5.96292 108.71922 33893 ft 471 kts 271°
2026-05-04 10:37 -5.96271 108.65345 33888 ft 471 kts 271°
2026-05-04 10:37 -5.96253 108.58766 33888 ft 471 kts 271°
2026-05-04 10:39 -5.96206 108.38885 30877 ft 485 kts 271°
2026-05-04 10:39 -5.96204 108.35500 30209 ft 482 kts 270°
2026-05-04 10:39 -5.96203 108.32154 29542 ft 477 kts 270°
2026-05-04 10:40 -5.96203 108.28834 28863 ft 474 kts 270°
2026-05-04 10:40 -5.96203 108.25543 28203 ft 469 kts 270°
2026-05-04 10:40 -5.96201 108.22281 27551 ft 465 kts 270°
2026-05-04 10:40 -5.96199 108.19045 26905 ft 461 kts 270°
2026-05-04 10:41 -5.96195 108.15880 26276 ft 458 kts 270°
2026-05-04 10:41 -5.96191 108.12697 25631 ft 454 kts 270°
2026-05-04 10:41 -5.96186 108.09541 25019 ft 450 kts 270°
2026-05-04 10:41 -5.96178 108.06413 24410 ft 446 kts 270°
2026-05-04 10:42 -5.96172 108.03316 23892 ft 440 kts 270°
2026-05-04 10:42 -5.96167 108.00300 23754 ft 424 kts 270°
2026-05-04 10:42 -5.96164 107.97387 23561 ft 411 kts 270°
2026-05-04 10:42 -5.96165 107.94537 23152 ft 405 kts 270°
2026-05-04 10:43 -5.96167 107.91733 22352 ft 399 kts 270°
2026-05-04 10:44 -5.96162 107.72760 18641 ft 376 kts 270°
2026-05-04 10:45 -5.96164 107.70144 17850 ft 372 kts 270°
2026-05-04 10:45 -5.96166 107.67571 17315 ft 362 kts 270°
2026-05-04 10:45 -5.96166 107.65078 17079 ft 353 kts 270°
2026-05-04 10:45 -5.96163 107.62634 16821 ft 347 kts 270°
2026-05-04 10:46 -5.96162 107.60213 16405 ft 347 kts 270°
2026-05-04 10:46 -5.96163 107.57846 16110 ft 341 kts 270°
2026-05-04 10:46 -5.96168 107.55480 15455 ft 337 kts 270°
2026-05-04 10:46 -5.96171 107.53141 14863 ft 332 kts 270°
2026-05-04 10:47 -5.96170 107.50840 14291 ft 327 kts 270°
2026-05-04 10:47 -5.96167 107.48571 13797 ft 324 kts 270°
2026-05-04 10:47 -5.96166 107.46298 13416 ft 324 kts 270°
2026-05-04 10:47 -5.96166 107.44051 13106 ft 319 kts 270°
2026-05-04 10:49 -5.96159 107.29106 11182 ft 286 kts 270°
2026-05-04 10:49 -5.96157 107.27119 10623 ft 284 kts 270°
2026-05-04 10:50 -5.96156 107.25142 10050 ft 282 kts 270°
2026-05-04 10:51 -5.96132 107.11663 7205 ft 263 kts 270°
2026-05-04 10:52 -5.96283 107.09879 7122 ft 250 kts 255°
2026-05-04 10:52 -5.96860 107.08253 6772 ft 250 kts 248°
2026-05-04 10:52 -5.97510 107.06615 6427 ft 248 kts 248°
2026-05-04 10:54 -6.01775 106.95651 4263 ft 235 kts 248°
2026-05-04 10:54 -6.02365 106.94169 4214 ft 221 kts 248°
2026-05-04 10:56 -6.06186 106.84598 3616 ft 210 kts 248°
2026-05-04 10:56 -6.06724 106.83250 3323 ft 206 kts 248°
2026-05-04 10:56 -6.07251 106.81927 3054 ft 203 kts 249°
2026-05-04 10:57 -6.07776 106.80617 2783 ft 201 kts 248°
2026-05-04 10:57 -6.08294 106.79322 2510 ft 196 kts 247°
2026-05-04 10:57 -6.08782 106.78099 2260 ft 181 kts 247°
2026-05-04 10:57 -6.09233 106.76964 2033 ft 170 kts 247°
2026-05-04 10:58 -6.09659 106.75895 1829 ft 157 kts 246°
2026-05-04 10:58 -6.10056 106.74899 1616 ft 152 kts 245°
2026-05-04 10:58 -6.10442 106.73936 1414 ft 147 kts 245°
2026-05-04 10:58 -6.10820 106.72984 1215 ft 145 kts 246°
2026-05-04 10:59 -6.11200 106.72032 1023 ft 145 kts 246°
2026-05-04 10:59 -6.11568 106.71108 827 ft 144 kts 246°
2026-05-04 10:59 -6.11939 106.70177 646 ft 143 kts 246°
2026-05-04 10:59 -6.12310 106.69247 457 ft 143 kts 246°
2026-05-04 11:00 -6.12670 106.68317 274 ft 142 kts 246°
2026-05-04 11:01 -6.13637 106.65322 39 ft 5 kts 338°
2026-05-04 11:02 -6.13600 106.65306 38 ft 9 kts 338°
2026-05-04 11:02 -6.13555 106.65288 38 ft 5 kts 339°
2026-05-04 11:05 -6.13211 106.65385 38 ft 0 kts 334°